Home   Weather   Fukuoka   Past weeks

Flag for Japan Past Weather in Fukuoka, Japan — Yesterday and Last 2 Weeks

Now
61 °F

Partly sunny.


Feels Like: 61 °F
Forecast: 50 / 70 °F
Wind: 10 mph from Northwest

Location: Fukuoka Airport

Current Time: Apr 27, 2017 at 6:29:55 pm

Latest Report: Apr 27, 2017 at 6:00 pm


Visibility: N/A

Pressure: 29.80 "Hg

Humidity: 59%

Dew Point: 46 °F

Location of FukuokaLocation

Past Weather in Fukuoka — Graph

°F

Fukuoka Temperature Yesterday

Maximum temperature yesterday: 68 °F (at 12:00 am)
Minimum temperature yesterday: 59 °F (at 8:10 am)
Average temperature yesterday: 62 °F

High & Low Weather Summary for the Past Weeks

 TemperatureHumidityPressure
High79 °F (Apr 16, 12:00 pm)94% (Apr 16, 12:30 am)30.15 "Hg (Apr 16, 12:30 am)
Low46 °F (Apr 13, 2:00 am)14% (Apr 14, 4:30 pm)29.36 "Hg (Apr 17, 7:30 pm)
Average63 °F59%29.90 "Hg
* Reported Apr 12 5:00 pm — Apr 27 5:00 pm, Fukuoka, Weather by CustomWeather, © 2017

Note: Actual official high and low records may vary slightly from our data, if they occured in-between our weather recording intervals... More about our weather records

Advertising

Fukuoka Weather History for the Previous 24 Hours

Scroll right to see more
 ConditionsComfort  
Time TempWeatherWind HumidityBarometerVisibility
5:00 pm
Thu, Apr 27
63 °FPartly sunny.12 mph56%29.80 "HgN/A
4:30 pm63 °FPartly sunny.10 mph56%29.80 "HgN/A
4:00 pm63 °FPartly sunny.12 mph56%29.80 "HgN/A
3:30 pm63 °FPartly sunny.9 mph59%29.80 "HgN/A
3:00 pm63 °FPartly sunny.12 mph56%29.80 "HgN/A
2:30 pm64 °FBroken clouds.12 mph52%29.83 "HgN/A
1:30 pm64 °FPartly sunny.12 mph49%29.83 "HgN/A
1:00 pm64 °FOvercast.10 mph46%29.83 "HgN/A
12:30 pm64 °FPartly sunny.10 mph49%29.83 "HgN/A
11:30 am64 °FPartly sunny.10 mph52%29.83 "HgN/A
10:30 am64 °FBroken clouds.8 mph49%29.83 "HgN/A
10:00 am64 °FBroken clouds.5 mph49%29.83 "HgN/A
9:30 am63 °FBroken clouds.5 mph56%29.83 "HgN/A
9:00 am61 °FBroken clouds.6 mph59%29.83 "HgN/A
8:30 am61 °FBroken clouds.6 mph63%29.83 "HgN/A
8:00 am59 °FBroken clouds.5 mph68%29.86 "HgN/A
7:30 am59 °FPartly sunny.7 mph72%29.83 "HgN/A
6:30 am59 °FBroken clouds.7 mph72%29.83 "HgN/A
6:00 am59 °FBroken clouds.6 mph77%29.83 "HgN/A
5:30 am59 °FPassing clouds.3 mph77%29.83 "HgN/A
5:00 am59 °FPassing clouds.6 mph77%29.80 "HgN/A
4:30 am57 °FPartly cloudy.6 mph88%29.80 "HgN/A
4:00 am57 °FPartly cloudy.2 mph88%29.80 "HgN/A
3:30 am57 °FMostly cloudy.3 mph88%29.83 "HgN/A
3:00 am57 °FClear.1 mph88%29.83 "Hg6 mi
2:30 am57 °FPartly cloudy.2 mph88%29.83 "HgN/A
2:00 am59 °FPartly cloudy.2 mph82%29.83 "HgN/A
1:43 am59 °FPassing clouds.3 mph82%29.83 "HgN/A
1:00 am59 °FClear.8 mph82%29.86 "HgN/A
12:30 am59 °FClear.7 mph82%29.86 "HgN/A
12:00 am59 °FPassing clouds.5 mph82%29.86 "Hg4 mi
11:30 pm
Wed, Apr 26
59 °FPassing clouds.5 mph82%29.86 "HgN/A
11:00 pm59 °FPassing clouds.3 mph82%29.86 "HgN/A
10:30 pm59 °FPassing clouds.3 mph82%29.86 "HgN/A
10:00 pm61 °FPartly cloudy.3 mph77%29.86 "HgN/A
9:30 pm61 °FPartly cloudy.5 mph77%29.86 "HgN/A
9:00 pm61 °FPartly cloudy.7 mph77%29.86 "HgN/A
8:30 pm61 °FPartly cloudy.6 mph77%29.86 "HgN/A
8:00 pm61 °FPartly cloudy.6 mph77%29.86 "HgN/A
7:30 pm61 °FPassing clouds.3 mph77%29.83 "HgN/A
6:30 pm63 °FPartly sunny.7 mph73%29.83 "HgN/A
6:00 pm61 °FPartly sunny.9 mph77%29.83 "HgN/A
Weather by CustomWeather, © 2017

See weather overviewHow to use our weather pages